Reflectivity
-8 -20 -20 -20 -19 -20 -20 -20 -13 -20 29 -15 -20 -12 -20 -20 -20 -19 -20 -20 1 -1 -20 -20 -20 -8 8 8 -5 -1 -1 10 14
-12 -20 -20 -20 -20 -20 -13 -20 -20 -20 -20 -20 -20 -20 -20 -20 -20 -20 -20 22 -5 21 29 -13 -1 11 -4 -9 -20 -7 -6 4 -15
-0 -20 -20 -6 2 -1 -20 4 2 -20 -12 -9 -20 -20 -20 -20 -20 -20 -20 35 -9 11 19 -6 -17 -8 3 7 7 4 8 9 -9
0 -13 12 -13 -9 -20 -20 3 6 -8 -20 -20 -20 -20 -20 -20 -20 -20 -20 -2 -5 -2 14 15 9 -19 -20 -2 8 10 10 14 15
-20 -20 -12 -20 -20 -20 -20 -20 -20 -16 -20 -20 -20 -20 -20 -20 -20 -20 -20 33 30 17 4 29 -1 -20 -20 2 1 -0 6 13 14
-20 -20 -20 -20 -20 -20 -20 -20 -18 7 -20 -20 -20 -20 -20 -20 -20 -20 -17 15 11 24 25 -7 19 -13 12 -20 -20 14 4 5 14
-20 -20 -20 -20 -20 -20 -20 -20 -20 -20 -20 -20 -20 -20 -20 -20 -20 -20 -9 -20 28 26 -2 -16 28 -11 4 22 4 6 12 -15 -16
-20 -20 -20 -20 -20 -20 -20 -20 -20 -20 -20 -20 -20 -10 -20 -20 -8 -2 -1 -17 42 35 33 33 33 32 33 29 2 18 29 25 16
-20 -20 -20 -20 -20 -20 -20 -20 -20 -20 -20 -20 -20 -20 -20 -20 -20 -20 18 37 35 21 24 28 34 35 35 32 7 15 3 4 7
-20 -20 -20 -20 -20 -20 -20 -20 -20 -20 -20 -20 -20 -20 -20 -20 -20 -20 1 20 22 27 44 40 36 31 31 27 20 10 -20 -20 -4
-20 -20 -20 -20 -20 -20 -20 -20 -20 -20 -20 -20 -20 -20 -20 -20 -20 -20 -13 5 3 13 25 29 32 28 28 24 19 14 10 -2 3
-20 -20 -20 -20 -20 -20 -20 -20 -20 -20 -20 -20 -20 -20 -20 -20 -20 -20 -20 -14 15 20 15 19 15 15 16 13 20 9 15 9 18
-20 -20 -20 -20 -20 -20 -20 -20 -20 -20 -20 -20 -20 -20 -20 -18 -15 -20 -20 -20 -20 -13 -14 7 7 12 11 15 15 13 20 19 13
-20 -20 -20 -20 -20 -20 -20 -20 -20 -20 -20 -20 -20 -20 -20 -11 -20 -20 -20 -20 -20 -20 -20 -20 -5 -9 6 11 13 19 18 12 11
-20 -20 -20 -20 -20 -20 -20 -20 -20 -20 -20 -20 -20 -20 -0 -15 -13 2 -10 -20 3 -15 -20 -20 -20 -1 -17 -18 -19 9 18 7 6
-20 -20 -14 12 -20 -20 -20 -20 -20 -20 -20 -20 -20 -7 -6 8 -6 -2 14 13 2 13 10 2 -20 -20 -20 -20 -20 -3 20 14 8
-20 -20 -20 -20 3 -20 -10 -20 -20 -20 -20 -20 -20 -20 -18 -20 11 9 -8 11 3 -0 12 6 -2 -20 -20 -20 -20 -3 13 16 11
-20 -20 -16 -20 -20 -20 -20 -20 -20 -20 -20 -20 -20 -20 -20 -20 -18 -4 -13 -7 -3 7 -8 -1 -20 -20 -20 -20 -20 -20 -20 8 14
-20 -20 -20 -20 -20 -20 -20 -20 -20 -20 -20 -20 -12 -3 -20 -20 -20 -19 -0 -5 11 6 9 -6 -14 -20 -20 -20 -20 -20 -20 -5 10
-20 -20 -20 -20 -20 -20 -20 -20 -20 -20 -20 -20 -19 -20 5 8 -20 -20 -20 -20 -20 -20 -14 -20 -15 -20 -20 -20 -20 -20 -20 -20 -20
Wind_Speed
18 18 16 13 12 14 16 16 14 15 14 16 17 15 13 9 5 5 5 5 15 18 17 17 16 19 20 19 19 19 18 17 18
18 18 18 16 15 14 15 17 17 18 18 17 17 15 13 7 6 5 4 6 15 17 18 18 18 18 18 18 18 18 18 18 18
17 18 16 16 16 18 18 17 19 19 18 18 17 17 13 8 7 5 4 11 15 17 17 16 17 18 19 17 17 17 17 16 16
17 17 17 16 16 16 17 18 17 17 17 18 17 17 15 7 5 5 4 8 15 15 15 17 17 18 18 17 18 18 17 16 15
18 14 15 17 17 16 17 17 18 19 16 17 17 16 15 9 7 5 3 8 13 15 15 17 17 18 18 17 18 18 17 15 15
9 13 15 16 16 16 15 16 15 16 17 17 17 13 6 8 6 6 7 6 12 15 16 17 15 16 17 18 17 19 17 17 15
8 10 16 16 15 16 15 15 15 11 6 5 10 6 7 8 8 7 16 3 6 13 16 15 15 15 15 17 18 18 16 16 15
4 4 5 5 10 6 8 7 6 7 6 7 7 8 8 5 6 12 22 10 4 11 11 15 13 14 14 14 17 17 15 14 14
5 4 5 5 4 6 6 4 5 7 8 7 9 9 7 6 6 14 25 27 25 5 15 18 18 17 16 16 18 18 19 19 18
4 4 4 4 4 4 5 5 6 8 8 9 9 9 10 10 6 9 29 30 31 29 25 23 22 21 22 23 22 21 19 19 20
4 4 5 5 4 4 4 4 5 5 6 9 9 9 9 10 10 9 15 31 31 31 32 29 25 25 25 25 23 22 20 20 19
4 4 4 4 4 6 5 5 5 7 7 9 10 8 10 9 12 11 10 13 30 30 30 32 31 29 27 26 24 24 22 22 22
5 4 4 4 4 4 5 4 6 6 7 7 9 8 9 11 12 12 11 10 10 20 29 30 30 29 27 25 24 23 21 22 23
4 3 5 5 4 4 4 5 4 6 7 9 8 8 9 10 11 14 14 15 12 9 20 28 30 28 27 26 25 23 22 23 23
5 5 5 4 4 4 4 6 6 4 6 9 9 9 8 9 10 11 11 13 13 12 13 10 13 27 27 25 24 23 21 22 22
6 4 5 5 5 4 3 3 6 5 3 4 8 8 10 11 9 9 9 12 12 13 11 9 8 9 23 25 22 21 22 22 22
7 6 5 5 4 6 5 3 3 3 4 3 4 3 3 8 9 8 9 12 9 11 12 12 13 10 8 16 22 20 21 22 23
9 9 6 6 5 5 5 5 4 3 4 6 2 4 3 3 5 10 8 10 8 8 10 12 12 10 9 11 14 22 21 20 20
9 8 8 8 5 7 6 6 4 3 4 2 5 4 3 3 4 5 7 8 9 9 8 9 10 10 8 15 19 20 19 18 18
9 9 8 8 7 8 9 8 8 6 4 4 3 4 5 4 3 4 4 6 7 7 7 7 7 9 7 8 12 20 19 18 17
Wind_Direction
80 69 62 57 72 84 82 78 85 89 93 83 84 78 61 59 50 47 82 84 106 101 92 84 80 78 80 78 76 75 74 77 80
84 74 62 55 64 74 85 84 77 80 75 72 72 68 63 62 51 42 20 99 102 99 95 95 92 90 85 80 77 76 74 73 71
85 80 72 64 66 65 61 69 82 80 76 69 60 56 51 45 46 32 35 100 97 97 99 98 96 92 86 82 79 77 74 71 73
83 83 84 76 72 66 69 69 71 77 83 76 65 62 52 45 43 27 38 92 99 99 102 100 94 92 93 90 83 77 74 73 74
64 53 72 78 79 69 66 69 69 70 66 77 70 60 52 43 27 29 26 96 103 104 98 96 96 90 87 85 86 84 77 74 75
47 58 64 71 82 79 68 64 64 63 55 50 59 60 56 51 36 19 11 102 109 101 98 94 93 95 94 89 83 77 75 72 68
52 52 65 68 72 75 74 63 50 45 47 36 50 50 43 51 42 23 29 29 124 123 119 111 104 97 93 89 85 82 78 74 69
41 35 33 48 46 52 55 61 48 49 38 39 41 44 47 40 48 24 36 35 47 104 105 97 94 86 77 87 91 87 79 74 68
36 40 24 46 37 58 66 59 61 56 54 44 46 39 42 31 42 39 48 45 46 124 127 111 101 101 96 94 82 82 78 68 62
47 35 29 35 45 53 61 55 58 58 57 51 45 40 39 42 44 51 50 52 43 49 66 83 87 84 81 75 71 69 69 68 58
59 45 34 29 36 62 71 73 76 70 67 60 48 35 41 42 46 54 49 50 51 49 50 58 65 71 69 67 67 65 62 63 62
65 72 54 21 23 62 64 52 61 65 58 62 60 44 43 44 51 53 51 47 49 49 49 51 52 56 60 60 57 56 56 59 56
49 59 56 40 24 68 65 56 74 65 66 66 57 43 39 50 52 51 53 49 41 44 48 50 49 46 47 52 54 53 56 54 53
67 45 56 54 55 66 83 64 62 86 75 71 61 51 42 41 54 51 52 53 46 44 43 46 47 46 41 40 42 47 55 54 50
56 50 50 33 61 49 53 86 60 58 87 83 65 56 50 46 56 56 54 57 50 43 42 37 36 44 40 36 30 35 57 53 49
52 62 53 33 52 66 46 74 91 65 41 97 81 68 54 51 48 54 52 54 52 44 41 41 34 29 34 34 31 27 44 51 47
54 49 46 47 62 47 43 32 98 72 15 110 117 120 99 57 48 56 60 53 50 46 43 42 42 30 17 26 29 30 35 44 45
48 47 49 52 56 59 53 18 50 118 35 40 96 141 135 122 49 59 59 58 52 49 45 40 35 29 24 12 18 31 32 34 41
55 52 50 48 49 53 51 38 41 50 75 18 35 56 76 144 143 68 62 60 55 48 45 40 37 27 18 17 28 32 28 26 31
55 53 55 57 58 48 59 53 51 52 68 28 358 31 50 24 134 143 124 78 52 52 45 44 38 25 20 22 20 30 26 26 25